User: anonymous   Login
Location: Unspecified
(0.0000°N, 0.0000°E)
Time: 21:57:11
(UTC+00:00)
Language:

LO-87 - Orbit

View from above orbital plane
View from above orbital plane
View from above satellite
View from above satellite

Ground track
Ground track

The orbit data is extracted from the following two-line orbital elements,

1 41557U 16033B   17082.88369862 +.00002090 +00000-0 +82323-4 0  9996
2 41557 097.4682 162.4010 0013139 312.7211 047.2920 15.26685612045418
Epoch (UTC): 23 March 2017 21:12:31
Eccentricity: 0.0013139
inclination: 97.4682°
perigee height: 477 km
apogee height: 495 km
right ascension of ascending node: 162.4010°
argument of perigee: 312.7211°
revolutions per day: 15.26685612
mean anomaly at epoch: 47.2920°
orbit number at epoch: 4541

The dashed part of the orbit path shows where the satellite is in the earth's shadow,  

DLR